Alexandria, Egypt

3:27 PM EET on October 20, 2017 (GMT +0200)
Alexandria

Weather History for HEAX - April, 2014

Change the Weather History Date:

Friday, April 18, 2014

  Actual Average Record
Temperature  
Mean Temperature 66 °F -  
Max Temperature 74 °F 75 °F 91 °F (1999)
Min Temperature 57 °F 60 °F 47 °F (2015)
Growing Degree Days 16 (Base 50)    
Moisture  
Dew Point 58 °F    
Average Humidity 73    
Maximum Humidity 94    
Minimum Humidity 55    
Precipitation  
Precipitation 0.00 in 0.00 in - ()
Sea Level Pressure  
Sea Level Pressure 29.87 in    
Wind  
Wind Speed 7 mph ()    
Max Wind Speed 16 mph    
Max Gust Speed -    
Visibility 6.1 miles    
Events      
Averages and records for this station are not official NWS values.
T = Trace of Precipitation, MM = Missing Value Source: Averaged Metar Reports

Daily Weather History Graph

Daily Weather History Graph

Search for Another Location

Airport or City:

Trip Planner

Search our weather history database for the weather conditions in past years. The results will help you decide how hot, cold, wet, or windy it might be!

Date:

Astronomy

Apr. 18, 2014 Rise Set
Actual Time 5:29 AM EET 6:30 PM EET
Civil Twilight 5:04 AM EET 6:55 PM EET
Nautical Twilight 4:34 AM EET 7:25 PM EET
Astronomical Twilight 4:04 AM EET 7:55 PM EET
Moon 9:47 PM EET (4/18) 7:41 AM EET (4/18)
Length of Visible Light 13h 51m
Length of Day
13h 01m
Waning Gibbous, 89% of the Moon is Illuminated
Apr 18
Waning Gibbous
Apr 22
Last Quarter
Apr 29
New
May 7
First Quarter
May 14
Full

Hourly Weather History & Observations

Time (EET) Temp. Dew Point Humidity Pressure Visibility Wind Dir Wind Speed Gust Speed Precip Events Conditions
1:00 AM 60.8 °F 55.4 °F 82% 29.83 in - SE 4.6 mph - N/A   Clear
2:00 AM 60 °F 55 °F 80% 30.12 in 6 mi SE 2.3 mph - -  
2:00 AM 59.0 °F 55.4 °F 88% 29.80 in - SE 2.3 mph - N/A   Clear
3:00 AM 59.0 °F 55.4 °F 88% 29.80 in - SE 3.5 mph - N/A   Clear
4:00 AM 59.0 °F 57.2 °F 94% 29.77 in - North 3.5 mph - N/A   Clear
5:00 AM 58 °F 56 °F 91% 29.80 in 6 mi Calm Calm - -  
5:00 AM 57.2 °F 55.4 °F 94% 29.77 in - Calm Calm - N/A   Clear
7:00 AM 62.6 °F 57.2 °F 82% 29.80 in - Calm Calm - N/A   Clear
8:00 AM 72 °F 59 °F 55% 29.86 in 6 mi West 11.5 mph - -  
8:00 AM 71.6 °F 59.0 °F 64% 29.86 in - West 11.5 mph - N/A   Clear
9:00 AM 73.4 °F 62.6 °F 69% 29.86 in - NW 6.9 mph - N/A   Clear
10:00 AM 73.4 °F 64.4 °F 73% 29.89 in 6.2 mi NNW 11.5 mph - N/A   Partly Cloudy
11:00 AM 72 °F 63 °F 66% 29.90 in 6 mi NNW 8.1 mph - -   Partly Cloudy
11:00 AM 71.6 °F 62.6 °F 73% 29.89 in 6.2 mi NNW 8.1 mph - N/A   Scattered Clouds
12:00 PM 73.4 °F 62.6 °F 69% 29.89 in 6.2 mi NW 10.4 mph - N/A   Scattered Clouds
1:00 PM 71.6 °F 59.0 °F 64% 29.89 in 6.2 mi North 12.7 mph - N/A   Scattered Clouds
2:00 PM 71 °F 58 °F 55% 29.89 in 6 mi NNW 13.8 mph - -   Partly Cloudy
2:00 PM 71.6 °F 59.0 °F 64% 29.89 in 6.2 mi NNW 13.8 mph - N/A   Scattered Clouds
3:00 PM 71.6 °F 59.0 °F 64% 29.89 in 6.2 mi North 12.7 mph - N/A   Scattered Clouds
4:00 PM 69.8 °F 59.0 °F 68% 29.86 in 6.2 mi North 13.8 mph - N/A   Scattered Clouds
5:00 PM 69 °F 58 °F 59% 29.88 in 6 mi North 13.8 mph - -   Partly Cloudy
5:00 PM 69.8 °F 57.2 °F 64% 29.86 in 6.2 mi North 13.8 mph - N/A   Scattered Clouds
6:00 PM 66.2 °F 57.2 °F 73% 29.89 in 6.2 mi North 12.7 mph - N/A   Scattered Clouds
7:00 PM 66.2 °F 57.2 °F 73% 29.86 in 6.2 mi North 13.8 mph - N/A   Scattered Clouds
8:00 PM 65 °F 57 °F 69% 29.85 in 6 mi NNE 16.1 mph - -   Mostly Cloudy
8:00 PM 66.2 °F 57.2 °F 73% 29.83 in 6.2 mi NNE 16.1 mph - N/A   Scattered Clouds
9:00 PM 66.2 °F 57.2 °F 73% 29.92 in 6.2 mi North 9.2 mph - N/A   Scattered Clouds
10:00 PM 66.2 °F 57.2 °F 73% 29.95 in 6.2 mi NNE 8.1 mph - N/A   Scattered Clouds
11:00 PM 65 °F 57 °F 68% 29.91 in 6 mi North 8.1 mph - -   Partly Cloudy
11:00 PM 66.2 °F 57.2 °F 73% 29.89 in 6.2 mi North 8.1 mph - N/A   Scattered Clouds